Total_Precipitation_Accumulation
0.08 0.08 0.10 0.13 0.10 0.08 0.02 0.01 0.01 0.01 0.01 0.01 0.01 0.01 0.01 0.02 0.04 0.11 0.13 0.14 0.16 0.14 0.21 0.35 0.55 0.63 0.72 0.79 0.84 0.77 0.67 0.61 0.62 0.59 0.56 0.56 0.59 0.64 0.71 0.75 0.80 0.85 0.95 0.95 0.89 0.99 1.02 1.01 0.93
0.08 0.11 0.14 0.16 0.10 0.06 0.02 0.01 0.01 0.01 0.01 0.01 0.01 0.01 0.01 0.02 0.03 0.07 0.13 0.14 0.16 0.16 0.19 0.28 0.51 0.63 0.71 0.74 0.72 0.74 0.72 0.65 0.60 0.55 0.55 0.58 0.62 0.66 0.72 0.79 0.83 0.83 0.97 0.95 0.93 0.98 0.93 0.90 0.83
0.13 0.17 0.19 0.17 0.09 0.03 0.02 0.02 0.01 0.02 0.02 0.02 0.01 0.02 0.03 0.03 0.04 0.07 0.11 0.14 0.18 0.19 0.24 0.37 0.51 0.66 0.74 0.74 0.70 0.71 0.76 0.69 0.63 0.58 0.58 0.59 0.61 0.66 0.70 0.70 0.74 0.78 0.89 0.87 0.85 0.89 0.83 0.79 0.76
0.22 0.27 0.21 0.15 0.06 0.02 0.02 0.02 0.02 0.02 0.02 0.01 0.02 0.03 0.04 0.03 0.04 0.06 0.11 0.15 0.19 0.20 0.27 0.40 0.54 0.68 0.74 0.75 0.78 0.79 0.79 0.76 0.69 0.65 0.64 0.63 0.64 0.64 0.64 0.62 0.60 0.63 0.69 0.71 0.74 0.78 0.76 0.71 0.66
0.27 0.28 0.22 0.12 0.05 0.03 0.02 0.03 0.03 0.02 0.01 0.01 0.02 0.04 0.07 0.06 0.05 0.08 0.12 0.16 0.21 0.25 0.29 0.42 0.60 0.75 0.78 0.79 0.79 0.81 0.82 0.84 0.75 0.73 0.74 0.71 0.66 0.66 0.61 0.55 0.53 0.55 0.55 0.57 0.66 0.74 0.77 0.73 0.64
0.33 0.29 0.19 0.10 0.05 0.03 0.03 0.03 0.05 0.04 0.02 0.01 0.02 0.05 0.10 0.10 0.10 0.13 0.15 0.20 0.25 0.31 0.36 0.48 0.69 0.85 0.84 0.87 0.84 0.88 0.89 0.93 0.85 0.83 0.85 0.82 0.78 0.72 0.67 0.60 0.54 0.53 0.51 0.52 0.57 0.66 0.81 0.79 0.66
0.33 0.28 0.14 0.08 0.07 0.05 0.04 0.05 0.06 0.07 0.05 0.02 0.02 0.06 0.12 0.13 0.13 0.16 0.20 0.25 0.33 0.38 0.44 0.54 0.75 0.92 0.94 0.89 0.95 0.98 0.96 1.02 0.96 0.94 0.92 0.83 0.78 0.74 0.74 0.71 0.64 0.62 0.58 0.54 0.55 0.60 0.77 0.79 0.69
0.34 0.36 0.18 0.08 0.07 0.07 0.05 0.06 0.05 0.09 0.07 0.05 0.04 0.07 0.11 0.12 0.15 0.22 0.30 0.35 0.40 0.44 0.57 0.71 0.86 1.13 1.15 0.93 0.90 0.98 0.98 1.05 1.03 0.97 0.85 0.71 0.69 0.72 0.70 0.65 0.63 0.63 0.62 0.59 0.54 0.54 0.64 0.69 0.66
0.44 0.46 0.24 0.11 0.08 0.09 0.06 0.07 0.07 0.08 0.10 0.07 0.07 0.07 0.08 0.11 0.22 0.31 0.40 0.46 0.51 0.54 0.69 0.88 1.05 1.22 1.25 1.06 0.91 1.02 1.04 1.08 1.03 0.93 0.79 0.69 0.69 0.66 0.61 0.51 0.53 0.60 0.64 0.62 0.59 0.57 0.61 0.62 0.56
0.58 0.44 0.24 0.13 0.09 0.09 0.08 0.10 0.10 0.11 0.12 0.11 0.10 0.09 0.12 0.18 0.30 0.38 0.41 0.47 0.52 0.61 0.80 0.91 1.13 1.26 1.23 1.11 1.03 1.11 1.07 1.07 0.98 0.80 0.80 0.82 0.81 0.77 0.66 0.57 0.52 0.59 0.62 0.65 0.68 0.67 0.63 0.57 0.51
0.53 0.36 0.19 0.12 0.11 0.12 0.11 0.12 0.15 0.14 0.16 0.13 0.11 0.13 0.19 0.27 0.36 0.41 0.44 0.49 0.55 0.66 0.84 1.02 1.24 1.44 1.37 1.23 1.15 1.18 1.16 1.13 1.07 0.94 0.86 0.93 0.98 0.91 0.82 0.74 0.69 0.64 0.61 0.63 0.66 0.68 0.60 0.59 0.69
0.47 0.28 0.16 0.14 0.14 0.18 0.17 0.14 0.15 0.19 0.18 0.15 0.15 0.19 0.28 0.30 0.35 0.38 0.48 0.59 0.68 0.75 0.88 1.11 1.30 1.49 1.53 1.41 1.31 1.21 1.13 1.11 1.09 1.10 1.01 0.98 0.95 0.83 0.75 0.68 0.64 0.64 0.61 0.61 0.61 0.62 0.62 0.61 0.65
0.42 0.31 0.20 0.15 0.16 0.19 0.20 0.19 0.17 0.17 0.16 0.18 0.24 0.30 0.32 0.31 0.34 0.38 0.47 0.56 0.64 0.74 0.85 1.10 1.26 1.41 1.55 1.60 1.49 1.37 1.22 1.10 1.07 1.11 1.12 1.05 0.93 0.86 0.75 0.67 0.65 0.61 0.58 0.58 0.57 0.52 0.54 0.60 0.62
0.38 0.31 0.27 0.21 0.20 0.22 0.22 0.21 0.20 0.19 0.18 0.23 0.26 0.29 0.35 0.34 0.33 0.39 0.45 0.50 0.56 0.63 0.73 0.94 1.19 1.31 1.50 1.52 1.50 1.45 1.36 1.26 1.22 1.17 1.12 1.18 1.09 0.96 0.85 0.73 0.67 0.65 0.59 0.56 0.56 0.53 0.54 0.56 0.57
0.39 0.40 0.34 0.27 0.24 0.26 0.29 0.28 0.22 0.19 0.20 0.23 0.26 0.30 0.36 0.37 0.38 0.42 0.45 0.44 0.48 0.56 0.68 0.82 0.99 1.14 1.27 1.35 1.42 1.43 1.36 1.31 1.22 1.18 1.14 1.18 1.25 1.11 1.02 0.92 0.81 0.72 0.68 0.67 0.70 0.68 0.67 0.67 0.67
0.52 0.57 0.50 0.30 0.23 0.27 0.41 0.35 0.22 0.21 0.21 0.22 0.26 0.31 0.36 0.36 0.38 0.45 0.51 0.48 0.50 0.54 0.61 0.75 0.86 1.04 1.18 1.32 1.40 1.45 1.43 1.39 1.25 1.19 1.20 1.17 1.22 1.26 1.20 1.10 1.00 0.85 0.81 0.82 0.80 0.80 0.81 0.73 0.73
0.76 0.63 0.46 0.32 0.24 0.29 0.42 0.35 0.22 0.23 0.23 0.22 0.24 0.27 0.31 0.34 0.38 0.43 0.48 0.46 0.48 0.51 0.56 0.69 0.79 0.88 1.06 1.36 1.53 1.51 1.57 1.57 1.43 1.35 1.35 1.25 1.20 1.18 1.21 1.19 1.12 1.00 0.92 0.93 0.91 0.81 0.81 0.81 0.84
0.64 0.46 0.35 0.30 0.27 0.31 0.36 0.27 0.20 0.22 0.23 0.22 0.24 0.27 0.30 0.32 0.35 0.41 0.45 0.45 0.51 0.56 0.59 0.65 0.81 0.97 1.10 1.33 1.62 1.72 1.62 1.64 1.64 1.48 1.41 1.35 1.34 1.27 1.20 1.20 1.14 1.11 1.08 1.05 1.02 0.94 0.88 0.86 0.88
0.48 0.44 0.36 0.27 0.27 0.40 0.36 0.25 0.21 0.21 0.24 0.25 0.25 0.24 0.28 0.31 0.35 0.44 0.46 0.48 0.52 0.60 0.63 0.64 0.73 0.95 1.13 1.26 1.41 1.59 1.56 1.56 1.65 1.65 1.53 1.46 1.34 1.29 1.24 1.16 1.14 1.10 1.07 1.06 1.07 1.06 1.00 0.93 0.93
0.59 0.55 0.41 0.30 0.27 0.42 0.42 0.31 0.23 0.20 0.25 0.26 0.26 0.24 0.25 0.31 0.36 0.43 0.49 0.53 0.53 0.59 0.66 0.66 0.65 0.79 0.97 1.09 1.24 1.50 1.63 1.68 1.82 1.82 1.72 1.69 1.46 1.29 1.25 1.21 1.17 1.14 1.13 1.10 1.06 1.09 1.10 1.06 1.01
0.67 0.57 0.44 0.43 0.39 0.45 0.48 0.41 0.27 0.23 0.24 0.26 0.26 0.24 0.25 0.32 0.37 0.42 0.48 0.54 0.59 0.60 0.62 0.66 0.64 0.70 0.87 1.09 1.28 1.48 1.76 1.80 1.87 1.89 1.75 1.75 1.70 1.44 1.30 1.24 1.23 1.18 1.15 1.13 1.08 1.05 1.09 1.18 1.17
0.63 0.43 0.42 0.52 0.70 0.70 0.59 0.63 0.33 0.26 0.25 0.25 0.25 0.23 0.28 0.34 0.38 0.45 0.51 0.54 0.63 0.62 0.62 0.64 0.67 0.70 0.82 1.03 1.21 1.26 1.39 1.50 1.45 1.51 1.58 1.63 1.77 1.65 1.38 1.26 1.19 1.16 1.15 1.13 1.15 1.09 1.07 1.13 1.17
0.50 0.38 0.49 0.61 0.83 0.82 0.59 0.66 0.40 0.29 0.31 0.28 0.26 0.24 0.28 0.33 0.42 0.49 0.51 0.53 0.64 0.66 0.64 0.65 0.72 0.72 0.79 0.95 1.11 1.21 1.24 1.29 1.37 1.38 1.40 1.48 1.57 1.62 1.52 1.33 1.27 1.22 1.18 1.13 1.12 1.13 1.10 1.09 1.08
0.57 0.65 0.80 0.91 1.21 1.22 0.50 0.49 0.44 0.38 0.37 0.34 0.31 0.28 0.28 0.33 0.47 0.52 0.54 0.59 0.68 0.71 0.71 0.71 0.74 0.77 0.76 0.85 1.00 1.12 1.16 1.23 1.34 1.36 1.28 1.28 1.39 1.47 1.48 1.40 1.27 1.24 1.20 1.17 1.14 1.12 1.09 1.09 1.08
0.96 1.42 2.00 2.10 1.89 1.05 0.32 0.36 0.44 0.41 0.40 0.43 0.40 0.34 0.29 0.36 0.45 0.47 0.52 0.62 0.71 0.74 0.72 0.70 0.72 0.80 0.82 0.88 0.93 0.97 1.07 1.15 1.23 1.31 1.31 1.30 1.30 1.39 1.44 1.43 1.32 1.23 1.23 1.21 1.21 1.21 1.14 1.12 1.12
0.97 1.20 1.54 1.53 1.06 0.54 0.29 0.33 0.36 0.34 0.33 0.36 0.37 0.35 0.32 0.34 0.40 0.44 0.44 0.50 0.61 0.73 0.78 0.73 0.67 0.71 0.81 0.91 0.91 0.94 1.03 1.13 1.12 1.15 1.23 1.28 1.27 1.32 1.44 1.46 1.41 1.32 1.32 1.36 1.35 1.35 1.31 1.27 1.22
0.98 0.95 0.79 1.05 0.79 0.57 0.40 0.31 0.27 0.21 0.22 0.33 0.37 0.37 0.38 0.34 0.37 0.38 0.38 0.42 0.47 0.56 0.65 0.74 0.72 0.70 0.71 0.83 0.95 0.94 1.01 1.09 1.08 1.06 1.10 1.12 1.11 1.15 1.26 1.38 1.43 1.45 1.42 1.42 1.49 1.50 1.43 1.42 1.39
0.79 0.92 1.09 1.47 1.34 0.79 0.41 0.33 0.37 0.28 0.25 0.32 0.41 0.42 0.46 0.43 0.39 0.36 0.34 0.38 0.41 0.45 0.49 0.62 0.75 0.75 0.77 0.78 0.89 0.96 0.98 1.04 1.09 1.09 1.08 1.11 1.15 1.16 1.16 1.20 1.26 1.32 1.38 1.40 1.41 1.44 1.47 1.50 1.49
0.73 1.01 1.35 1.43 1.17 0.92 0.57 0.42 0.42 0.35 0.30 0.33 0.43 0.48 0.51 0.51 0.50 0.44 0.36 0.37 0.40 0.47 0.52 0.54 0.66 0.76 0.81 0.77 0.81 0.90 0.98 1.00 1.09 1.17 1.16 1.14 1.21 1.27 1.26 1.23 1.20 1.17 1.20 1.31 1.41 1.42 1.44 1.49 1.46
0.63 0.78 1.06 1.42 1.10 0.75 0.65 0.46 0.33 0.30 0.30 0.33 0.40 0.47 0.49 0.48 0.48 0.45 0.39 0.38 0.42 0.49 0.53 0.54 0.64 0.70 0.78 0.82 0.83 0.86 0.97 1.02 1.06 1.13 1.21 1.20 1.22 1.27 1.26 1.27 1.23 1.13 1.11 1.18 1.27 1.33 1.36 1.39 1.37